Location: ??????
(41.3747°N, 22.5491°E)
Time: 06:14:42
(UTC+00:00)

Meteor 1-4 Rocket - Pass Details

Date: 01 December 2020
Orbit: 449 x 500 km, 81.2° (Epoch: 20 January)

Event Time Altitude Azimuth Distance (km) Brightness Sun altitude
Rises 15:53:56 0° 180° (S) 2,526 6.5 -9.8°
Reaches altitude 10° 15:56:03 10° 177° (S) 1,643 5.5 -10.2°
Maximum altitude 15:59:36 60° 97° (E) 543 2.5 -10.8°
Drops below altitude 10° 16:03:06 10° 17° (NNE) 1,627 4.9 -11.4°
Enters shadow 16:04:17 - 15° (NNE) 2,120 5.5 -11.7°
